EZY81KE EGPF-LIRF

Flight info

Callsign EZY81KE
Flight time 2h 42m
Altitude 35000
Route LUSIV DCT BELOX DCT SAWPE Q63 CPT UL9 LINDY L151 MID UL612 RESMI UM975 PEKIM DCT LUSAR DCT LURAG DCT ANAKI DCT ELKAP
Aircraft A320/M-SDE3FGHIRWY/LB1

Departure

Time 2026-05-06 11:25
Airport Glasgow Airport (EGPF)

Arrival

Time 2026-05-06 14:08
Airport Rome–Fiumicino Leonardo da Vinci International Airport (LIRF)
Time Latitude Longitude Altitude Speed Heading
2026-05-06 11:14 55.86555 -4.43177 29 ft 1 kts 342°
2026-05-06 11:14 55.86551 -4.43175 29 ft 1 kts 343°
2026-05-06 11:16 55.86554 -4.43177 29 ft 4 kts 343°
2026-05-06 11:17 55.86590 -4.43196 29 ft 5 kts 342°
2026-05-06 11:17 55.86620 -4.43213 29 ft 6 kts 343°
2026-05-06 11:17 55.86667 -4.43238 29 ft 6 kts 343°
2026-05-06 11:17 55.86705 -4.43258 29 ft 5 kts 344°
2026-05-06 11:18 55.86734 -4.43271 29 ft 4 kts 345°
2026-05-06 11:18 55.86756 -4.43281 29 ft 5 kts 345°
2026-05-06 11:18 55.86795 -4.43322 29 ft 6 kts 301°
2026-05-06 11:18 55.86791 -4.43383 29 ft 4 kts 255°
2026-05-06 11:19 55.86783 -4.43429 29 ft 5 kts 253°
2026-05-06 11:19 55.86770 -4.43508 29 ft 7 kts 253°
2026-05-06 11:19 55.86752 -4.43620 29 ft 10 kts 253°
2026-05-06 11:19 55.86735 -4.43723 29 ft 8 kts 253°
2026-05-06 11:20 55.86711 -4.43798 29 ft 6 kts 227°
2026-05-06 11:20 55.86685 -4.43847 29 ft 5 kts 225°
2026-05-06 11:20 55.86646 -4.43917 29 ft 8 kts 225°
2026-05-06 11:20 55.86610 -4.43983 29 ft 7 kts 225°
2026-05-06 11:21 55.86581 -4.44035 29 ft 5 kts 225°
2026-05-06 11:21 55.86560 -4.44075 29 ft 5 kts 231°
2026-05-06 11:21 55.86516 -4.44162 29 ft 10 kts 226°
2026-05-06 11:21 55.86470 -4.44248 29 ft 8 kts 226°
2026-05-06 11:22 55.86433 -4.44317 29 ft 8 kts 226°
2026-05-06 11:22 55.86373 -4.44429 29 ft 15 kts 226°
2026-05-06 11:22 55.86306 -4.44554 29 ft 13 kts 226°
2026-05-06 11:22 55.86256 -4.44646 29 ft 7 kts 229°
2026-05-06 11:23 55.86255 -4.44714 29 ft 5 kts 298°
2026-05-06 11:23 55.86276 -4.44753 29 ft 5 kts 315°
2026-05-06 11:23 55.86323 -4.44837 29 ft 11 kts 315°
2026-05-06 11:23 55.86373 -4.44857 29 ft 7 kts 30°
2026-05-06 11:24 55.86394 -4.44827 29 ft 0 kts 45°
2026-05-06 11:24 55.86410 -4.44797 29 ft 21 kts 45°
2026-05-06 11:24 55.86697 -4.44259 29 ft 95 kts 47°
2026-05-06 11:25 55.87290 -4.43152 31 ft 150 kts 46°
2026-05-06 11:25 55.88058 -4.41699 430 ft 165 kts 49°
2026-05-06 11:25 55.88855 -4.40201 1150 ft 167 kts 47°
2026-05-06 11:25 55.89678 -4.38698 1743 ft 177 kts 48°
2026-05-06 11:26 55.90576 -4.37033 2067 ft 197 kts 49°
2026-05-06 11:26 55.91565 -4.35187 2433 ft 212 kts 48°
2026-05-06 11:26 55.92612 -4.33210 2985 ft 223 kts 52°
2026-05-06 11:26 55.93421 -4.30781 3577 ft 233 kts 72°
2026-05-06 11:27 55.93727 -4.27954 4177 ft 242 kts 92°
2026-05-06 11:27 55.93439 -4.24974 4852 ft 248 kts 113°
2026-05-06 11:27 55.92564 -4.22320 5597 ft 251 kts 133°
2026-05-06 11:27 55.91195 -4.20384 6323 ft 254 kts 155°
2026-05-06 11:28 55.89504 -4.19471 7017 ft 257 kts 176°
2026-05-06 11:28 55.87729 -4.19746 7722 ft 259 kts 199°
2026-05-06 11:28 55.86124 -4.21200 8443 ft 262 kts 218°
2026-05-06 11:28 55.84631 -4.23112 9173 ft 267 kts 214°
2026-05-06 11:29 55.83006 -4.24746 9907 ft 272 kts 207°
2026-05-06 11:29 55.81238 -4.26038 10574 ft 276 kts 200°
2026-05-06 11:29 55.79373 -4.26921 11099 ft 287 kts 192°
2026-05-06 11:29 55.77337 -4.27456 11408 ft 307 kts 187°
2026-05-06 11:30 55.75134 -4.27580 11552 ft 331 kts 181°
2026-05-06 11:30 55.72760 -4.27755 11684 ft 351 kts 188°
2026-05-06 11:30 55.70275 -4.28210 11964 ft 366 kts 180°
2026-05-06 11:30 55.67761 -4.27268 12505 ft 376 kts 159°
2026-05-06 11:31 55.65416 -4.25137 13121 ft 381 kts 153°
2026-05-06 11:31 55.63045 -4.23004 13736 ft 384 kts 158°
2026-05-06 11:31 55.60542 -4.21326 14286 ft 386 kts 164°
2026-05-06 11:31 55.57988 -4.20047 14831 ft 388 kts 168°
2026-05-06 11:32 55.55355 -4.18973 15368 ft 390 kts 170°
2026-05-06 11:32 55.52687 -4.17977 15894 ft 393 kts 171°
2026-05-06 11:32 55.49999 -4.16970 16420 ft 396 kts 170°
2026-05-06 11:32 55.47297 -4.15905 16934 ft 399 kts 169°
2026-05-06 11:33 55.44581 -4.14771 17426 ft 403 kts 169°
2026-05-06 11:33 55.41850 -4.13580 17927 ft 406 kts 168°
2026-05-06 11:33 55.39099 -4.12351 18416 ft 409 kts 168°
2026-05-06 11:33 55.36332 -4.11107 18844 ft 412 kts 168°
2026-05-06 11:34 55.33543 -4.09864 19264 ft 415 kts 169°
2026-05-06 11:34 55.30774 -4.08643 19684 ft 417 kts 169°
2026-05-06 11:34 55.27950 -4.07409 20099 ft 420 kts 169°
2026-05-06 11:34 55.25107 -4.06176 20513 ft 422 kts 169°
2026-05-06 11:35 55.22250 -4.04936 20934 ft 425 kts 169°
2026-05-06 11:35 55.19372 -4.03691 21316 ft 427 kts 169°
2026-05-06 11:35 55.16481 -4.02445 21723 ft 429 kts 169°
2026-05-06 11:35 55.13571 -4.01192 22122 ft 432 kts 169°
2026-05-06 11:36 55.10652 -3.99934 22510 ft 434 kts 169°
2026-05-06 11:36 55.07752 -3.98684 22881 ft 436 kts 169°
2026-05-06 11:36 55.04797 -3.97412 23239 ft 438 kts 169°
2026-05-06 11:36 55.01826 -3.96136 23603 ft 441 kts 169°
2026-05-06 11:37 54.98844 -3.94858 23908 ft 443 kts 169°
2026-05-06 11:37 54.95843 -3.93574 24211 ft 445 kts 169°
2026-05-06 11:37 54.92831 -3.92287 24499 ft 447 kts 169°
2026-05-06 11:37 54.89804 -3.90999 24812 ft 448 kts 169°
2026-05-06 11:38 54.86765 -3.89709 25102 ft 450 kts 169°
2026-05-06 11:38 54.83715 -3.88415 25384 ft 452 kts 169°
2026-05-06 11:38 54.80652 -3.87113 25655 ft 454 kts 169°
2026-05-06 11:38 54.77576 -3.85803 25926 ft 456 kts 169°
2026-05-06 11:39 54.74525 -3.84504 26165 ft 458 kts 169°
2026-05-06 11:39 54.71422 -3.83185 26429 ft 460 kts 169°
2026-05-06 11:39 54.68308 -3.81863 26672 ft 462 kts 168°
2026-05-06 11:39 54.65180 -3.80545 26938 ft 463 kts 168°
2026-05-06 11:40 54.62047 -3.79230 27191 ft 465 kts 168°
2026-05-06 11:40 54.58894 -3.77907 27427 ft 467 kts 168°
2026-05-06 11:40 54.55731 -3.76577 27668 ft 468 kts 168°
2026-05-06 11:40 54.52566 -3.75249 27998 ft 468 kts 169°
2026-05-06 11:41 54.49455 -3.73946 28396 ft 466 kts 169°
2026-05-06 11:41 54.46306 -3.72630 28764 ft 465 kts 169°
2026-05-06 11:41 54.43169 -3.71320 29101 ft 464 kts 169°
2026-05-06 11:41 54.40037 -3.70017 29500 ft 462 kts 169°
2026-05-06 11:42 54.36914 -3.68724 29874 ft 461 kts 169°
2026-05-06 11:42 54.33798 -3.67434 30219 ft 460 kts 169°
2026-05-06 11:42 54.30688 -3.66149 30507 ft 459 kts 169°
2026-05-06 11:42 54.27585 -3.64867 30797 ft 459 kts 169°
2026-05-06 11:43 54.24483 -3.63586 31085 ft 458 kts 169°
2026-05-06 11:43 54.21427 -3.62323 31365 ft 458 kts 169°
2026-05-06 11:43 54.18332 -3.61039 31636 ft 457 kts 169°
2026-05-06 11:44 54.12173 -3.58501 32254 ft 455 kts 169°
2026-05-06 11:44 54.09097 -3.57247 32532 ft 454 kts 169°
2026-05-06 11:44 54.06023 -3.55994 32813 ft 454 kts 169°
2026-05-06 11:44 54.02956 -3.54742 33082 ft 453 kts 169°
2026-05-06 11:45 53.99889 -3.53492 33358 ft 453 kts 169°
2026-05-06 11:45 53.96864 -3.52258 33626 ft 453 kts 169°
2026-05-06 11:45 53.93803 -3.51014 33879 ft 452 kts 169°
2026-05-06 11:45 53.90743 -3.49765 34140 ft 452 kts 168°
2026-05-06 11:46 53.87757 -3.48043 34348 ft 455 kts 159°
2026-05-06 11:46 53.84899 -3.45692 34560 ft 457 kts 156°
2026-05-06 11:46 53.82059 -3.43282 34757 ft 457 kts 156°
2026-05-06 11:46 53.79213 -3.40876 34958 ft 457 kts 156°
2026-05-06 11:47 53.73500 -3.36081 35066 ft 460 kts 156°
2026-05-06 11:47 53.67767 -3.31295 35071 ft 460 kts 156°
2026-05-06 11:48 53.62072 -3.26555 35082 ft 459 kts 156°
2026-05-06 11:48 53.56342 -3.21797 35084 ft 459 kts 156°
2026-05-06 11:49 53.50618 -3.17037 35084 ft 459 kts 156°
2026-05-06 11:49 53.44890 -3.12289 35082 ft 459 kts 156°
2026-05-06 11:50 53.39200 -3.07594 35059 ft 459 kts 156°
2026-05-06 11:50 53.33474 -3.02890 35065 ft 458 kts 157°
2026-05-06 11:51 53.27751 -2.98195 35063 ft 458 kts 157°
2026-05-06 11:51 53.22036 -2.93522 35063 ft 457 kts 157°
2026-05-06 11:52 53.16321 -2.88872 35060 ft 457 kts 157°
2026-05-06 11:52 53.10653 -2.84261 35059 ft 456 kts 157°
2026-05-06 11:53 53.04946 -2.79637 35062 ft 456 kts 157°
2026-05-06 11:53 52.99242 -2.75032 35052 ft 456 kts 157°
2026-05-06 11:54 52.93536 -2.70444 35040 ft 455 kts 157°
2026-05-06 11:54 52.87876 -2.65896 35047 ft 455 kts 157°
2026-05-06 11:55 52.82179 -2.61334 35050 ft 455 kts 157°
2026-05-06 11:55 52.76479 -2.56783 35051 ft 455 kts 157°
2026-05-06 11:56 52.70784 -2.52251 35039 ft 455 kts 157°
2026-05-06 11:56 52.65083 -2.47725 35043 ft 454 kts 157°
2026-05-06 11:57 52.59423 -2.43252 35050 ft 454 kts 157°
2026-05-06 11:57 52.53728 -2.38761 35049 ft 454 kts 157°
2026-05-06 11:58 52.48039 -2.34291 35032 ft 453 kts 157°
2026-05-06 11:58 52.42352 -2.29832 35031 ft 453 kts 157°
2026-05-06 11:59 52.36699 -2.25402 35031 ft 453 kts 157°
2026-05-06 11:59 52.31008 -2.20956 35029 ft 453 kts 157°
2026-05-06 12:00 52.25312 -2.16520 35017 ft 454 kts 157°
2026-05-06 12:00 52.19607 -2.12104 35021 ft 454 kts 157°
2026-05-06 12:01 52.13903 -2.07697 35032 ft 454 kts 157°
2026-05-06 12:01 52.08235 -2.03321 35034 ft 454 kts 157°
2026-05-06 12:02 52.02528 -1.98927 35015 ft 454 kts 157°
2026-05-06 12:02 51.96825 -1.94556 35012 ft 454 kts 157°
2026-05-06 12:03 51.91118 -1.90199 35021 ft 453 kts 157°
2026-05-06 12:03 51.85446 -1.85874 35024 ft 454 kts 157°
2026-05-06 12:04 51.79732 -1.81536 35028 ft 453 kts 157°
2026-05-06 12:04 51.74025 -1.77197 35018 ft 454 kts 156°
2026-05-06 12:05 51.68345 -1.72897 35023 ft 454 kts 156°
2026-05-06 12:05 51.62751 -1.68179 35029 ft 456 kts 146°
2026-05-06 12:06 51.60319 -1.64894 35029 ft 458 kts 135°
2026-05-06 12:06 51.58270 -1.60961 35026 ft 460 kts 125°
2026-05-06 12:06 51.55542 -1.51682 35009 ft 462 kts 109°
2026-05-06 12:07 51.53470 -1.41913 34989 ft 461 kts 110°
2026-05-06 12:07 51.51403 -1.32335 35005 ft 458 kts 110°
2026-05-06 12:08 51.49336 -1.22673 35003 ft 463 kts 106°
2026-05-06 12:08 51.48008 -1.12545 35001 ft 464 kts 101°
2026-05-06 12:09 51.45781 -1.02976 35003 ft 460 kts 128°
2026-05-06 12:09 51.43581 -0.99292 35003 ft 457 kts 144°
2026-05-06 12:09 51.40939 -0.96498 34998 ft 455 kts 153°
2026-05-06 12:10 51.35241 -0.92111 34990 ft 455 kts 156°
2026-05-06 12:10 51.29686 -0.87436 34986 ft 457 kts 151°
2026-05-06 12:11 51.24315 -0.81984 34990 ft 458 kts 147°
2026-05-06 12:11 51.19029 -0.76336 35000 ft 457 kts 147°
2026-05-06 12:12 51.13703 -0.70813 34996 ft 457 kts 148°
2026-05-06 12:12 51.08361 -0.65438 35008 ft 457 kts 149°
2026-05-06 12:13 51.03001 -0.60049 34980 ft 458 kts 148°
2026-05-06 12:13 50.97709 -0.54424 34970 ft 458 kts 147°
2026-05-06 12:14 50.92465 -0.48738 34963 ft 458 kts 147°
2026-05-06 12:14 50.87160 -0.43050 34956 ft 459 kts 147°
2026-05-06 12:15 50.81890 -0.37465 34954 ft 459 kts 147°
2026-05-06 12:15 50.76564 -0.31855 34957 ft 460 kts 147°
2026-05-06 12:16 50.71238 -0.26262 34986 ft 459 kts 147°
2026-05-06 12:16 50.65923 -0.20683 34995 ft 459 kts 147°
2026-05-06 12:17 50.60657 -0.15155 34985 ft 458 kts 147°
2026-05-06 12:17 50.55356 -0.09608 34974 ft 458 kts 147°
2026-05-06 12:18 50.50041 -0.04070 34971 ft 458 kts 147°
2026-05-06 12:18 50.44726 0.01440 34993 ft 458 kts 147°
2026-05-06 12:19 50.39415 0.06940 34987 ft 457 kts 147°
2026-05-06 12:19 50.34157 0.12378 34995 ft 455 kts 147°
2026-05-06 12:20 50.28868 0.17831 34992 ft 455 kts 147°
2026-05-06 12:20 50.23587 0.23256 34996 ft 454 kts 147°
2026-05-06 12:21 50.18305 0.28675 34989 ft 454 kts 147°
2026-05-06 12:21 50.13071 0.34047 34994 ft 453 kts 147°
2026-05-06 12:22 50.07805 0.39453 34984 ft 453 kts 147°
2026-05-06 12:22 50.02539 0.44843 34986 ft 453 kts 147°
2026-05-06 12:23 49.97276 0.50212 34991 ft 452 kts 147°
2026-05-06 12:23 49.92017 0.55560 34980 ft 452 kts 147°
2026-05-06 12:24 49.86795 0.60861 34974 ft 452 kts 147°
2026-05-06 12:24 49.81833 0.66821 34969 ft 452 kts 141°
2026-05-06 12:25 49.76956 0.72965 34965 ft 452 kts 141°
2026-05-06 12:25 49.72107 0.79054 34969 ft 452 kts 141°
2026-05-06 12:26 49.67224 0.85175 34951 ft 452 kts 141°
2026-05-06 12:26 49.62332 0.91292 34963 ft 452 kts 141°
2026-05-06 12:27 49.57434 0.97389 34953 ft 452 kts 141°
2026-05-06 12:27 49.52566 1.03426 34950 ft 453 kts 141°
2026-05-06 12:28 49.47662 1.09497 34947 ft 452 kts 141°
2026-05-06 12:28 49.42754 1.15552 34951 ft 452 kts 141°
2026-05-06 12:29 49.37852 1.21601 34954 ft 452 kts 141°
2026-05-06 12:29 49.32981 1.27605 34949 ft 452 kts 141°
2026-05-06 12:30 49.28070 1.33626 34945 ft 452 kts 141°
2026-05-06 12:30 49.23154 1.39635 34954 ft 452 kts 141°
2026-05-06 12:31 49.18244 1.45632 34943 ft 452 kts 141°
2026-05-06 12:31 49.13324 1.51622 34941 ft 452 kts 142°
2026-05-06 12:32 49.08436 1.57543 34942 ft 452 kts 142°
2026-05-06 12:32 49.03510 1.63495 34938 ft 452 kts 142°
2026-05-06 12:33 48.98579 1.69446 34937 ft 453 kts 142°
2026-05-06 12:33 48.93641 1.75394 34940 ft 453 kts 142°
2026-05-06 12:34 48.88739 1.81290 34943 ft 451 kts 143°
2026-05-06 12:34 48.83829 1.87170 34938 ft 449 kts 143°
2026-05-06 12:35 48.78927 1.93018 34938 ft 448 kts 142°
2026-05-06 12:35 48.74031 1.98847 34929 ft 448 kts 142°
2026-05-06 12:36 48.69126 2.04683 34911 ft 449 kts 142°
2026-05-06 12:36 48.64248 2.10465 34925 ft 448 kts 143°
2026-05-06 12:37 48.59330 2.16272 34912 ft 448 kts 142°
2026-05-06 12:37 48.55061 2.23097 34928 ft 449 kts 125°
2026-05-06 12:38 48.51522 2.30866 34932 ft 449 kts 126°
2026-05-06 12:38 48.47974 2.38605 34924 ft 448 kts 126°
2026-05-06 12:39 48.44446 2.46267 34911 ft 448 kts 125°
2026-05-06 12:39 48.40882 2.53958 34924 ft 448 kts 126°
2026-05-06 12:40 48.37318 2.61648 34905 ft 448 kts 126°
2026-05-06 12:40 48.33745 2.69345 34905 ft 449 kts 126°
2026-05-06 12:41 48.30183 2.76985 34905 ft 450 kts 126°
2026-05-06 12:41 48.26382 2.84415 34906 ft 448 kts 135°
2026-05-06 12:42 48.22005 2.91086 34904 ft 449 kts 135°
2026-05-06 12:42 48.17632 2.97765 34901 ft 449 kts 135°
2026-05-06 12:43 48.13278 3.04408 34897 ft 450 kts 136°
2026-05-06 12:43 48.08881 3.11085 34906 ft 451 kts 136°
2026-05-06 12:44 48.04470 3.17748 34911 ft 451 kts 136°
2026-05-06 12:44 48.00057 3.24416 34910 ft 451 kts 136°
2026-05-06 12:45 47.95679 3.31043 34909 ft 452 kts 136°
2026-05-06 12:46 47.89040 3.41008 34900 ft 451 kts 136°
2026-05-06 12:46 47.85358 3.46511 34906 ft 451 kts 136°
2026-05-06 12:47 47.80931 3.53117 34914 ft 450 kts 136°
2026-05-06 12:47 47.75798 3.60778 34911 ft 450 kts 136°
2026-05-06 12:48 47.71378 3.67362 34912 ft 450 kts 136°
2026-05-06 12:48 47.67696 3.72815 34902 ft 450 kts 136°
2026-05-06 12:49 47.63264 3.79363 34896 ft 449 kts 136°
2026-05-06 12:49 47.58118 3.86967 34889 ft 450 kts 136°
2026-05-06 12:50 47.54400 3.92441 34887 ft 450 kts 137°
2026-05-06 12:50 47.49985 3.98907 34882 ft 450 kts 137°
2026-05-06 12:51 47.45536 4.05416 34877 ft 450 kts 137°
2026-05-06 12:51 47.41087 4.11913 34880 ft 450 kts 137°
2026-05-06 12:52 47.36634 4.18410 34863 ft 450 kts 137°
2026-05-06 12:52 47.32212 4.24847 34871 ft 449 kts 137°
2026-05-06 12:53 47.27758 4.31295 34872 ft 449 kts 137°
2026-05-06 12:53 47.23297 4.37729 34873 ft 449 kts 137°
2026-05-06 12:54 47.18838 4.44154 34872 ft 449 kts 137°
2026-05-06 12:54 47.14381 4.50567 34870 ft 448 kts 138°
2026-05-06 12:55 47.09958 4.56927 34858 ft 448 kts 138°
2026-05-06 12:55 47.05494 4.63325 34852 ft 449 kts 138°
2026-05-06 12:56 47.01016 4.69712 34853 ft 449 kts 138°
2026-05-06 12:56 46.96530 4.76095 34858 ft 450 kts 138°
2026-05-06 12:57 46.92077 4.82445 34860 ft 450 kts 138°
2026-05-06 12:57 46.87585 4.88822 34862 ft 450 kts 138°
2026-05-06 12:58 46.83079 4.95187 34857 ft 451 kts 139°
2026-05-06 12:58 46.78564 5.01548 34863 ft 451 kts 139°
2026-05-06 12:59 46.74076 5.07863 34873 ft 452 kts 139°
2026-05-06 12:59 46.69547 5.14224 34879 ft 452 kts 139°
2026-05-06 13:00 46.65199 5.20857 34891 ft 454 kts 133°
2026-05-06 13:00 46.61132 5.27897 34877 ft 455 kts 133°
2026-05-06 13:01 46.57085 5.34888 34894 ft 455 kts 133°
2026-05-06 13:01 46.53000 5.41921 34900 ft 455 kts 133°
2026-05-06 13:02 46.48911 5.48922 34907 ft 455 kts 134°
2026-05-06 13:02 46.44817 5.55910 34908 ft 455 kts 134°
2026-05-06 13:03 46.40749 5.62854 34885 ft 455 kts 134°
2026-05-06 13:03 46.36651 5.69843 34904 ft 455 kts 134°
2026-05-06 13:04 46.32550 5.76814 34922 ft 455 kts 134°
2026-05-06 13:04 46.28446 5.83775 34931 ft 455 kts 135°
2026-05-06 13:05 46.24331 5.90718 34943 ft 455 kts 135°
2026-05-06 13:05 46.20248 5.97607 34944 ft 455 kts 135°
2026-05-06 13:06 46.16130 6.04528 34935 ft 454 kts 136°
2026-05-06 13:06 46.12011 6.11418 34940 ft 454 kts 136°
2026-05-06 13:07 46.07894 6.18306 34946 ft 453 kts 136°
2026-05-06 13:07 46.03809 6.25131 34949 ft 453 kts 136°
2026-05-06 13:08 45.99688 6.31995 34945 ft 453 kts 136°
2026-05-06 13:08 45.95565 6.38841 34928 ft 452 kts 137°
2026-05-06 13:09 45.91446 6.45658 34944 ft 452 kts 137°
2026-05-06 13:09 45.87353 6.52422 34956 ft 451 kts 137°
2026-05-06 13:10 45.83234 6.59205 34957 ft 451 kts 137°
2026-05-06 13:10 45.79107 6.65980 34951 ft 451 kts 137°
2026-05-06 13:11 45.74988 6.72742 34925 ft 450 kts 138°
2026-05-06 13:11 45.70893 6.79447 34913 ft 450 kts 138°
2026-05-06 13:12 45.66772 6.86175 34926 ft 450 kts 138°
2026-05-06 13:12 45.62649 6.92901 34904 ft 450 kts 138°
2026-05-06 13:13 45.58591 6.99490 34902 ft 449 kts 138°
2026-05-06 13:13 45.54460 7.06172 34847 ft 449 kts 139°
2026-05-06 13:14 45.50060 7.12347 34888 ft 440 kts 146°
2026-05-06 13:14 45.45491 7.18146 34877 ft 440 kts 146°
2026-05-06 13:15 45.40962 7.23900 34869 ft 439 kts 146°
2026-05-06 13:15 45.36398 7.29679 34864 ft 439 kts 146°
2026-05-06 13:16 45.31833 7.35432 34860 ft 439 kts 146°
2026-05-06 13:16 45.27260 7.41186 34868 ft 439 kts 146°
2026-05-06 13:17 45.22686 7.46936 34881 ft 439 kts 146°
2026-05-06 13:17 45.18147 7.52639 34834 ft 439 kts 146°
2026-05-06 13:18 45.13573 7.58359 34839 ft 438 kts 146°
2026-05-06 13:18 45.08995 7.64066 34823 ft 438 kts 146°
2026-05-06 13:19 45.04421 7.69763 34787 ft 438 kts 147°
2026-05-06 13:19 44.99872 7.75413 34793 ft 438 kts 147°
2026-05-06 13:20 44.95294 7.81087 34791 ft 438 kts 147°
2026-05-06 13:20 44.90710 7.86759 34774 ft 438 kts 147°
2026-05-06 13:21 44.86163 7.92388 34771 ft 424 kts 147°
2026-05-06 13:21 44.83997 7.95084 34799 ft 407 kts 147°
2026-05-06 13:21 44.81943 7.97639 34800 ft 392 kts 148°
2026-05-06 13:21 44.79933 8.00127 34782 ft 377 kts 149°
2026-05-06 13:22 44.78006 8.02503 34798 ft 361 kts 149°
2026-05-06 13:22 44.76153 8.04784 34794 ft 346 kts 150°
2026-05-06 13:22 44.74380 8.06959 34792 ft 331 kts 150°
2026-05-06 13:22 44.72686 8.09037 34792 ft 316 kts 151°
2026-05-06 13:23 44.71071 8.11019 34765 ft 301 kts 152°
2026-05-06 13:23 44.69511 8.12925 34443 ft 295 kts 153°
2026-05-06 13:23 44.67934 8.14809 33866 ft 300 kts 154°
2026-05-06 13:23 44.66368 8.16627 33360 ft 301 kts 154°
2026-05-06 13:24 44.64771 8.18457 33142 ft 293 kts 155°
2026-05-06 13:24 44.63164 8.20278 33192 ft 299 kts 155°
2026-05-06 13:24 44.61563 8.22103 33657 ft 292 kts 154°
2026-05-06 13:24 44.60025 8.23915 34090 ft 287 kts 153°
2026-05-06 13:25 44.58497 8.25771 34137 ft 296 kts 152°
2026-05-06 13:25 44.56925 8.27728 34058 ft 307 kts 151°
2026-05-06 13:25 44.55342 8.29765 34195 ft 312 kts 150°
2026-05-06 13:25 44.53755 8.31862 34119 ft 324 kts 149°
2026-05-06 13:26 44.52054 8.34104 33536 ft 350 kts 149°
2026-05-06 13:26 44.50173 8.36516 32560 ft 385 kts 149°
2026-05-06 13:26 44.48063 8.39147 30950 ft 434 kts 148°
2026-05-06 13:26 44.45743 8.41973 30539 ft 444 kts 149°
2026-05-06 13:27 44.43379 8.44757 30848 ft 443 kts 150°
2026-05-06 13:27 44.41021 8.47521 31203 ft 441 kts 150°
2026-05-06 13:27 44.38674 8.50291 31537 ft 441 kts 149°
2026-05-06 13:27 44.36376 8.53025 31892 ft 440 kts 149°
2026-05-06 13:28 44.34054 8.55810 32245 ft 439 kts 149°
2026-05-06 13:28 44.31742 8.58597 32570 ft 439 kts 149°
2026-05-06 13:28 44.29436 8.61381 32840 ft 438 kts 149°
2026-05-06 13:28 44.27132 8.64160 33121 ft 437 kts 149°
2026-05-06 13:29 44.24828 8.66932 33440 ft 437 kts 149°
2026-05-06 13:29 44.22523 8.69688 33747 ft 436 kts 149°
2026-05-06 13:29 44.20226 8.72428 34003 ft 435 kts 149°
2026-05-06 13:29 44.17976 8.75204 34198 ft 439 kts 147°
2026-05-06 13:30 44.15746 8.78129 34419 ft 442 kts 145°
2026-05-06 13:30 44.13546 8.81133 34644 ft 444 kts 144°
2026-05-06 13:30 44.11356 8.84164 34823 ft 445 kts 144°
2026-05-06 13:31 44.06948 8.90210 34850 ft 444 kts 145°
2026-05-06 13:31 44.02499 8.96166 34889 ft 444 kts 145°
2026-05-06 13:32 43.98062 9.02035 34890 ft 443 kts 145°
2026-05-06 13:32 43.93591 9.07936 34884 ft 444 kts 145°
2026-05-06 13:33 43.89126 9.13839 34872 ft 444 kts 145°
2026-05-06 13:33 43.84660 9.19752 34861 ft 444 kts 145°
2026-05-06 13:34 43.80211 9.25615 34877 ft 445 kts 145°
2026-05-06 13:34 43.75721 9.31511 34884 ft 445 kts 145°
2026-05-06 13:35 43.71233 9.37408 34892 ft 445 kts 145°
2026-05-06 13:35 43.66740 9.43298 34900 ft 446 kts 145°
2026-05-06 13:36 43.62239 9.49192 34879 ft 447 kts 145°
2026-05-06 13:36 43.57732 9.55080 34900 ft 450 kts 144°
2026-05-06 13:37 43.53182 9.60997 34906 ft 450 kts 145°
2026-05-06 13:37 43.48623 9.66911 34907 ft 450 kts 145°
2026-05-06 13:38 43.44066 9.72821 34915 ft 450 kts 145°
2026-05-06 13:38 43.39537 9.78684 34897 ft 450 kts 144°
2026-05-06 13:39 43.34971 9.84574 34885 ft 450 kts 144°
2026-05-06 13:39 43.30405 9.90448 34916 ft 450 kts 144°
2026-05-06 13:40 43.25844 9.96314 34926 ft 449 kts 144°
2026-05-06 13:40 43.21278 10.02173 34932 ft 449 kts 144°
2026-05-06 13:41 43.16748 10.07976 34910 ft 449 kts 144°
2026-05-06 13:41 43.12179 10.13798 34930 ft 448 kts 144°
2026-05-06 13:42 43.07608 10.19604 34928 ft 448 kts 144°
2026-05-06 13:42 43.03039 10.25416 34909 ft 449 kts 144°
2026-05-06 13:43 42.98494 10.31188 34916 ft 449 kts 144°
2026-05-06 13:43 42.93911 10.36988 34912 ft 449 kts 144°
2026-05-06 13:44 42.89319 10.42783 34895 ft 449 kts 144°
2026-05-06 13:44 42.87036 10.45665 34298 ft 448 kts 145°
2026-05-06 13:44 42.84746 10.48552 33549 ft 448 kts 145°
2026-05-06 13:44 42.82457 10.51429 32735 ft 448 kts 145°
2026-05-06 13:45 42.80164 10.54307 31912 ft 449 kts 145°
2026-05-06 13:45 42.75647 10.59991 31000 ft 434 kts 145°
2026-05-06 13:45 42.73464 10.62767 30650 ft 427 kts 143°
2026-05-06 13:46 42.71506 10.65842 30132 ft 435 kts 133°
2026-05-06 13:46 42.69858 10.69315 29558 ft 436 kts 129°
2026-05-06 13:46 42.68265 10.72804 28978 ft 433 kts 129°
2026-05-06 13:46 42.66688 10.76267 28406 ft 428 kts 129°
2026-05-06 13:47 42.65128 10.79687 27847 ft 424 kts 129°
2026-05-06 13:47 42.63602 10.83027 27304 ft 421 kts 129°
2026-05-06 13:47 42.62059 10.86385 26769 ft 417 kts 129°
2026-05-06 13:47 42.60525 10.89713 26241 ft 414 kts 129°
2026-05-06 13:48 42.59002 10.93012 25724 ft 411 kts 129°
2026-05-06 13:48 42.57493 10.96283 25214 ft 408 kts 129°
2026-05-06 13:48 42.55993 10.99530 24715 ft 405 kts 129°
2026-05-06 13:48 42.54503 11.02752 24227 ft 402 kts 129°
2026-05-06 13:49 42.53024 11.05944 23753 ft 398 kts 129°
2026-05-06 13:49 42.51557 11.09109 23255 ft 395 kts 129°
2026-05-06 13:49 42.50121 11.12207 22722 ft 392 kts 129°
2026-05-06 13:49 42.48679 11.15320 22187 ft 389 kts 128°
2026-05-06 13:50 42.47243 11.18417 21669 ft 387 kts 128°
2026-05-06 13:50 42.45812 11.21494 21155 ft 385 kts 128°
2026-05-06 13:50 42.44389 11.24553 20653 ft 383 kts 128°
2026-05-06 13:50 42.42969 11.27598 20160 ft 381 kts 128°
2026-05-06 13:51 42.41554 11.30624 19669 ft 380 kts 128°
2026-05-06 13:51 42.40145 11.33636 19194 ft 378 kts 127°
2026-05-06 13:51 42.38746 11.36629 18718 ft 376 kts 127°
2026-05-06 13:51 42.37370 11.39572 18271 ft 374 kts 127°
2026-05-06 13:52 42.35983 11.42536 17726 ft 372 kts 127°
2026-05-06 13:52 42.34601 11.45484 17197 ft 370 kts 127°
2026-05-06 13:52 42.33223 11.48416 16688 ft 369 kts 127°
2026-05-06 13:52 42.31850 11.51336 16169 ft 368 kts 127°
2026-05-06 13:53 42.30496 11.54217 15679 ft 356 kts 127°
2026-05-06 13:53 42.29186 11.57000 15172 ft 348 kts 127°
2026-05-06 13:53 42.27895 11.59745 14686 ft 345 kts 127°
2026-05-06 13:53 42.26612 11.62466 14210 ft 343 kts 127°
2026-05-06 13:54 42.25348 11.65138 13736 ft 342 kts 127°
2026-05-06 13:54 42.24069 11.67838 13195 ft 340 kts 127°
2026-05-06 13:54 42.22802 11.70515 12666 ft 336 kts 127°
2026-05-06 13:54 42.21552 11.73158 12165 ft 333 kts 127°
2026-05-06 13:55 42.20341 11.75809 11668 ft 331 kts 125°
2026-05-06 13:55 42.19180 11.78473 11177 ft 329 kts 124°
2026-05-06 13:55 42.18051 11.81127 10890 ft 320 kts 124°
2026-05-06 13:55 42.16988 11.83649 10715 ft 300 kts 124°
2026-05-06 13:56 42.15983 11.86019 10341 ft 292 kts 124°
2026-05-06 13:56 42.14975 11.88366 9919 ft 287 kts 124°
2026-05-06 13:56 42.13972 11.90675 9475 ft 285 kts 125°
2026-05-06 13:56 42.12972 11.92966 9040 ft 282 kts 125°
2026-05-06 13:57 42.11984 11.95228 8487 ft 280 kts 126°
2026-05-06 13:57 42.11000 11.97486 7990 ft 278 kts 124°
2026-05-06 13:57 42.10044 11.99696 7645 ft 269 kts 125°
2026-05-06 13:57 42.09111 12.01847 7230 ft 264 kts 123°
2026-05-06 13:58 42.08183 12.03978 6694 ft 263 kts 125°
2026-05-06 13:58 42.07264 12.06084 6195 ft 260 kts 125°
2026-05-06 13:58 42.06363 12.08144 5720 ft 256 kts 124°
2026-05-06 13:58 42.05470 12.10182 5353 ft 246 kts 126°
2026-05-06 13:59 42.04634 12.12098 5221 ft 229 kts 125°
2026-05-06 13:59 42.03851 12.13893 4992 ft 216 kts 126°
2026-05-06 13:59 42.03097 12.15616 4504 ft 212 kts 125°
2026-05-06 13:59 42.02353 12.17310 3980 ft 209 kts 126°
2026-05-06 14:00 42.01456 12.18773 3549 ft 198 kts 146°
2026-05-06 14:00 42.00293 12.19604 3544 ft 188 kts 173°
2026-05-06 14:00 41.99018 12.19395 3596 ft 188 kts 204°
2026-05-06 14:00 41.98091 12.18242 3407 ft 187 kts 238°
2026-05-06 14:01 41.97915 12.16502 3089 ft 198 kts 277°
2026-05-06 14:01 41.98650 12.14910 2980 ft 211 kts 315°
2026-05-06 14:01 41.99839 12.13695 2983 ft 215 kts 319°
2026-05-06 14:01 42.01226 12.13032 2983 ft 215 kts
2026-05-06 14:02 42.02555 12.13797 2983 ft 207 kts 51°
2026-05-06 14:02 42.03041 12.15441 2975 ft 182 kts 104°
2026-05-06 14:02 42.02523 12.16842 2995 ft 166 kts 138°
2026-05-06 14:02 42.01667 12.17858 2989 ft 163 kts 148°
2026-05-06 14:03 42.00761 12.18786 3015 ft 163 kts 148°
2026-05-06 14:03 41.99861 12.19666 3017 ft 160 kts 154°
2026-05-06 14:03 41.98867 12.20300 3014 ft 158 kts 166°
2026-05-06 14:03 41.97808 12.20667 2902 ft 157 kts 168°
2026-05-06 14:04 41.96767 12.21066 2594 ft 153 kts 166°
2026-05-06 14:04 41.95780 12.21466 2358 ft 143 kts 165°
2026-05-06 14:04 41.94845 12.21853 2156 ft 139 kts 164°
2026-05-06 14:04 41.93925 12.22237 1968 ft 138 kts 165°
2026-05-06 14:05 41.93014 12.22618 1785 ft 136 kts 165°
2026-05-06 14:05 41.92118 12.22993 1596 ft 134 kts 162°
2026-05-06 14:05 41.91240 12.23361 1419 ft 134 kts 162°
2026-05-06 14:05 41.90351 12.23735 1236 ft 133 kts 163°
2026-05-06 14:06 41.89466 12.24106 1060 ft 133 kts 164°
2026-05-06 14:06 41.88577 12.24478 876 ft 138 kts 162°
2026-05-06 14:06 41.87680 12.24855 695 ft 133 kts 163°
2026-05-06 14:06 41.86798 12.25224 513 ft 133 kts 164°
2026-05-06 14:07 41.85907 12.25610 331 ft 135 kts 163°
2026-05-06 14:07 41.85021 12.25978 177 ft 132 kts 163°
2026-05-06 14:07 41.84161 12.26333 30 ft 125 kts 163°
2026-05-06 14:07 41.83439 12.26635 15 ft 86 kts 162°
2026-05-06 14:08 41.83019 12.26814 12 ft 50 kts 162°
2026-05-06 14:08 41.82760 12.26921 14 ft 33 kts 163°
2026-05-06 14:08 41.82549 12.27008 12 ft 31 kts 162°
2026-05-06 14:08 41.82350 12.27091 9 ft 29 kts 163°
2026-05-06 14:09 41.82170 12.27139 12 ft 23 kts 176°
2026-05-06 14:09 41.82019 12.27127 11 ft 20 kts 191°
2026-05-06 14:09 41.81882 12.27088 11 ft 20 kts 192°
2026-05-06 14:09 41.81754 12.27049 11 ft 18 kts 188°
2026-05-06 14:10 41.81633 12.27068 12 ft 18 kts 163°
2026-05-06 14:10 41.81517 12.27117 13 ft 17 kts 162°
2026-05-06 14:10 41.81403 12.27164 12 ft 17 kts 163°
2026-05-06 14:10 41.81290 12.27210 12 ft 17 kts 163°
2026-05-06 14:11 41.81174 12.27257 14 ft 18 kts 163°
2026-05-06 14:11 41.81057 12.27309 12 ft 18 kts 161°
2026-05-06 14:11 41.80939 12.27354 12 ft 17 kts 176°
2026-05-06 14:11 41.80822 12.27331 12 ft 17 kts 190°
2026-05-06 14:12 41.80703 12.27295 14 ft 17 kts 207°
2026-05-06 14:12 41.80640 12.27168 14 ft 17 kts 249°
2026-05-06 14:12 41.80598 12.27018 14 ft 18 kts 249°
2026-05-06 14:12 41.80553 12.26857 13 ft 18 kts 250°
2026-05-06 14:13 41.80510 12.26695 16 ft 18 kts 250°
2026-05-06 14:13 41.80465 12.26532 15 ft 19 kts 249°
2026-05-06 14:13 41.80417 12.26384 16 ft 15 kts 230°
2026-05-06 14:13 41.80317 12.26386 14 ft 15 kts 159°
2026-05-06 14:14 41.80218 12.26409 14 ft 15 kts 190°
2026-05-06 14:14 41.80120 12.26347 14 ft 16 kts 206°
2026-05-06 14:14 41.80020 12.26286 14 ft 16 kts 205°
2026-05-06 14:14 41.79918 12.26223 14 ft 16 kts 205°
2026-05-06 14:15 41.79819 12.26161 14 ft 16 kts 205°
2026-05-06 14:15 41.79723 12.26146 14 ft 13 kts 167°
2026-05-06 14:15 41.79644 12.26115 14 ft 9 kts 206°
2026-05-06 14:15 41.79607 12.26131 14 ft 5 kts 118°
2026-05-06 14:16 41.79592 12.26173 14 ft 2 kts 115°
2026-05-06 14:16 41.79589 12.26183 14 ft 1 kts 115°
2026-05-06 14:16 41.79589 12.26184 14 ft 0 kts 115°